DW8032 Weather Reports


Display with metric or nautical units.
time (UTC)temp
F
wind
direction
speed
MPH
gust
MPH
rain 1hr
in
rain 24hr
in
rain mn
in
humidity
%
barometer
mb
20260508210001 59 246 1.0 2.0 0.00 0.00 0.00 61 1016.3
20260508204959 60 236 1.0 2.0 0.00 0.00 0.00 61 1016.4
20260508204000 60 224 1.0 2.0 0.00 0.00 0.00 62 1016.4
20260508203000 60 240 0.0 2.0 0.00 0.00 0.00 62 1016.5
20260508201958 60 236 1.0 2.0 0.00 0.00 0.00 61 1016.5
20260508201000 60 272 1.0 1.0 0.00 0.00 0.00 60 1016.7
20260508200001 60 240 1.0 3.0 0.00 0.00 0.00 59 1016.9
20260508193959 60 242 1.0 2.0 0.00 0.00 0.00 60 1016.9
20260508192959 60 269 1.0 3.0 0.00 0.00 0.00 62 1017.3
20260508192000 59 339 1.0 2.0 0.00 0.00 0.00 64 1017.4
20260508190958 59 57 0.0 2.0 0.00 0.00 0.00 66 1017.6
20260508185959 59 56 1.0 2.0 0.00 0.00 0.00 63 1017.9
20260508184957 58 62 1.0 3.0 0.00 0.00 0.00 65 1017.8
20260508183958 58 322 1.0 2.0 0.00 0.00 0.00 59 1018.0
20260508182958 59 293 1.0 2.0 0.00 0.00 0.00 60 1018.0
20260508180958 59 214 1.0 2.0 0.00 0.00 0.00 60 1018.2
20260508175958 60 29 1.0 3.0 0.00 0.00 0.00 62 1018.2
20260508174957 60 358 1.0 4.0 0.00 0.00 0.00 60 1018.5
20260508173958 59 69 0.0 3.0 0.00 0.00 0.00 68 1018.5
20260508170959 58 108 1.0 2.0 0.00 0.00 0.00 62 1018.7
20260508170001 59 37 1.0 3.0 0.00 0.00 0.00 61 1018.9
20260508164959 60 326 0.0 2.0 0.00 0.00 0.00 57 1019.1
20260508163958 62 336 1.0 4.0 0.00 0.00 0.00 52 1019.2
20260508163000 62 70 2.0 4.0 0.00 0.00 0.00 54 1019.3
20260508161002 61 77 1.0 4.0 0.00 0.00 0.00 57 1019.4
20260508160000 64 300 1.0 4.0 0.00 0.00 0.00 51 1019.5
20260508155000 64 25 1.0 3.0 0.00 0.00 0.00 56 1019.7
20260508153959 61 54 0.0 3.0 0.00 0.00 0.00 55 1019.7
20260508152959 61 249 0.0 1.0 0.00 0.00 0.00 52 1019.8
20260508151000 63 238 0.0 1.0 0.00 0.00 0.00 49 1019.7
20260508144957 61 246 0.0 2.0 0.00 0.00 0.00 51 1019.7
20260508143957 60 197 0.0 2.0 0.00 0.00 0.00 53 1019.8
20260508142958 62 57 1.0 2.0 0.00 0.00 0.00 52 1019.8
20260508141957 62 243 0.0 2.0 0.00 0.00 0.00 51 1019.9
20260508140959 64 18 0.0 2.0 0.00 0.00 0.00 52 1019.9
20260508135958 63 316 0.0 1.0 0.00 0.00 0.00 54 1019.9
20260508134958 62 53 0.0 1.0 0.00 0.00 0.00 53 1019.8
20260508133958 60 113 0.0 1.0 0.00 0.00 0.00 58 1019.8
20260508132957 58 40 1.0 2.0 0.00 0.00 0.00 60 1019.8
20260508131959 59 56 0.0 2.0 0.00 0.00 0.00 58 1019.8
20260508130957 57 61 0.0 1.0 0.00 0.00 0.00 54 1019.7
20260508125958 56 60 1.0 2.0 0.00 0.00 0.00 64 1019.6
20260508124957 55 71 0.0 1.0 0.00 0.00 0.00 66 1019.4
20260508123958 56 82 0.0 0.0 0.00 0.00 0.00 65 1019.4
20260508122958 58 95 0.0 0.0 0.00 0.00 0.00 55 1019.3
20260508120958 56 86 0.0 0.0 0.00 0.00 0.00 61 1019.1
20260508115958 54 86 0.0 0.0 0.00 0.07 0.00 59 1019.0
20260508114958 51 86 0.0 0.0 0.00 0.07 0.00 64 1018.8
20260508113958 49 86 0.0 0.0 0.00 0.07 0.00 66 1018.6
20260508112959 48 86 0.0 0.0 0.00 0.07 0.00 67 1018.4
20260508111958 47 86 0.0 0.0 0.00 0.07 0.00 69 1018.4
20260508110958 46 86 0.0 0.0 0.00 0.07 0.00 70 1018.2
20260508110000 45 86 0.0 0.0 0.00 0.07 0.00 71 1018.0
20260508104959 44 86 0.0 0.0 0.00 0.08 0.00 73 1017.9
20260508104000 44 86 0.0 0.0 0.00 0.08 0.00 73 1017.9
20260508102959 44 86 0.0 0.0 0.00 0.08 0.00 74 1017.7
20260508101958 43 86 0.0 0.0 0.00 0.08 0.00 75 1017.5
20260508100959 43 86 0.0 0.0 0.00 0.08 0.00 76 1017.4
20260508093959 43 86 0.0 0.0 0.00 0.08 0.00 78 1017.1
20260508091959 44 86 0.0 0.0 0.00 0.08 0.00 78 1017.1
20260508085959 43 264 0.0 0.0 0.00 0.08 0.00 78 1017.1
20260508084958 44 264 0.0 0.0 0.00 0.08 0.00 78 1017.0
20260508083958 44 264 0.0 0.0 0.00 0.08 0.00 76 1016.9
20260508082958 45 264 0.0 0.0 0.00 0.08 0.00 75 1016.7
20260508081958 45 264 0.0 0.0 0.00 0.08 0.00 74 1016.8
20260508080957 45 264 0.0 0.0 0.00 0.08 0.00 72 1016.7
20260508075957 45 264 0.0 0.0 0.00 0.10 0.00 73 1016.6
20260508073958 46 264 0.0 0.0 0.00 0.10 0.00 71 1016.6
20260508072958 46 264 0.0 0.0 0.00 0.10 0.00 71 1016.4
20260508071957 46 264 0.0 0.0 0.00 0.10 0.00 72 1016.2
20260508070958 46 264 0.0 0.0 0.00 0.10 0.00 74 1016.3
20260508065958 46 269 0.0 0.0 0.00 0.10 0.00 73 1016.3
20260508064957 46 269 0.0 0.0 0.00 0.10 0.00 74 1016.3
20260508062958 46 283 0.0 0.0 0.00 0.10 0.00 76 1016.3
20260508061958 45 264 0.0 2.0 0.00 0.10 0.00 77 1016.2
20260508060958 45 260 0.0 1.0 0.00 0.10 0.00 78 1016.2
20260508054959 46 248 0.0 2.0 0.00 0.13 0.00 77 1016.2
20260508054000 46 267 0.0 0.0 0.00 0.13 0.00 77 1016.2
20260508052959 46 113 0.0 1.0 0.00 0.13 0.00 77 1016.3
20260508051959 46 277 0.0 2.0 0.00 0.13 0.00 77 1016.2
20260508050959 47 222 0.0 2.0 0.00 0.13 0.00 76 1016.0
20260508050000 47 267 1.0 4.0 0.00 0.13 0.00 76 1016.1
20260508044959 47 276 1.0 4.0 0.00 0.18 0.00 76 1016.1
20260508043959 47 304 1.0 5.0 0.00 0.18 0.00 77 1015.9
20260508042959 47 273 0.0 2.0 0.00 0.18 0.00 77 1015.8
20260508041957 46 315 0.0 3.0 0.00 0.18 0.00 78 1015.9
20260508040958 46 288 1.0 2.0 0.00 0.18 0.00 79 1015.8
20260508040004 46 269 1.0 4.0 0.00 0.18 0.00 80 1015.9
20260508034000 47 299 1.0 2.0 0.00 0.19 0.18 81 1016.0
20260508033000 47 281 1.0 3.0 0.00 0.19 0.18 81 1016.2
20260508032000 47 316 1.0 2.0 0.00 0.19 0.18 81 1016.1
20260508031000 47 328 2.0 3.0 0.00 0.19 0.18 81 1016.1
20260508022958 47 293 1.0 4.0 0.00 0.21 0.18 80 1015.3
20260508020958 47 4 2.0 5.0 0.00 0.21 0.18 80 1015.0
20260508014959 47 287 2.0 7.0 0.00 0.22 0.18 79 1015.0
20260508014000 47 316 2.0 7.0 0.00 0.22 0.18 79 1014.9
20260508013000 47 166 2.0 5.0 0.00 0.22 0.18 80 1014.7
20260508011959 47 314 2.0 8.0 0.00 0.22 0.18 79 1014.5
20260508011000 48 215 1.0 6.0 0.00 0.22 0.18 78 1014.5
20260508010001 48 323 2.0 5.0 0.00 0.22 0.18 78 1014.3
20260508004959 48 207 1.0 4.0 0.00 0.30 0.18 77 1014.3
20260508003959 48 72 1.0 5.0 0.00 0.30 0.18 77 1014.3
20260508003000 49 158 1.0 5.0 0.00 0.30 0.18 77 1014.3
20260508001959 49 194 2.0 7.0 0.00 0.30 0.18 76 1013.9
20260508000959 49 270 1.0 3.0 0.00 0.30 0.18 76 1013.6
20260507234958 50 278 0.0 3.0 0.00 0.41 0.18 77 1013.5
20260507233959 50 294 1.0 3.0 0.00 0.41 0.18 77 1013.8
20260507232959 50 280 1.0 4.0 0.00 0.41 0.18 78 1013.7
20260507230959 51 263 2.0 4.0 0.00 0.41 0.18 78 1013.4
20260507230001 52 316 2.0 7.0 0.00 0.41 0.18 77 1013.2
20260507225000 53 315 2.0 4.0 0.00 0.42 0.18 76 1013.1
20260507224000 53 307 2.0 6.0 0.00 0.42 0.18 76 1013.0
20260507223000 54 307 3.0 12.0 0.00 0.42 0.18 75 1013.0
20260507221959 54 290 3.0 8.0 0.00 0.42 0.18 74 1012.6
20260507221000 55 305 3.0 10.0 0.00 0.42 0.18 73 1012.4
20260507220002 56 333 3.0 6.0 0.00 0.42 0.18 72 1012.3
20260507215000 56 276 3.0 11.0 0.00 0.45 0.18 70 1012.1
20260507213959 57 297 3.0 7.0 0.00 0.45 0.18 71 1012.0
20260507213000 57 305 2.0 7.0 0.00 0.45 0.18 71 1011.7
20260507211959 58 287 3.0 9.0 0.00 0.45 0.18 70 1011.9
20260507211000 58 103 3.0 7.0 0.00 0.45 0.18 71 1011.8